Regional Weather Roundup
Issued by NWS Sterling, VA

Home | Current Version | Previous Version | Graphics & Text | Print | Product List | Glossary On
Versions: 1 2 3 4 5 6 7 8 9 10 11 12 13 14 15 16 17 18 19 20 21 22 23 24 25 26 27 28 29 30 31 32 33 34 35 36 37 38 39 40 41 42 43 44 45 46 47 48 49 50
000
ASUS41 KLWX 311710
RWRLWX

REGIONAL WEATHER ROUNDUP
NATIONAL WEATHER SERVICE BALTIMORE MD/WASHINGTON DC
100 PM EDT THU JUL 31 2014

Note: "FAIR" indicates few or no clouds below 12,000 feet
with no significant weather and/or obstructions to visibility.
 TC=TEMPERATURE CELSIUS

 * =Non NWS site. Station does not report precipitation (e.g. rain,
    snow, etc.), thunder, or fog.

DCZ001-MDZ009-015-VAZ040>042-051-053>054-311800-
WASHINGTON METRO
  /KDAA//-FT BELVOIR

CITY           SKY/WX    TMP DP  RH WIND       PRES   REMARKS
WASHINGTON NAT MOSUNNY   83  63  50 S13       30.10F
DULLES         MOSUNNY   81  55  40 SW9       30.10F
QUANTICO       PTSUNNY   83  62  49 S10       30.11S
COLLEGE PARK*  PTSUNNY   84  55  37 SW6       30.09F
LEESBURG*      SUNNY     82  61  47 W5        30.11S
MANASSAS*      SUNNY     82  63  51 SW9       30.10F
GAITHERSBURG*  SUNNY     81  59  47 SW5       30.14F

$$

MDZ006>007-011-014-311800-
BALTIMORE METRO

CITY           SKY/WX    TMP DP  RH WIND       PRES   REMARKS
BWI AIRPORT    MOSUNNY   83  56  39 S6        30.09F
MD SCIENCE CTR   N/A     84  54  35 MISG      30.09F
MARTIN STATE   MOSUNNY   82  68  61 SE12      30.11F
ANNAPOLIS      PTSUNNY   82  63  52 S8        30.10S
FORT MEADE*    SUNNY     81  57  44 SW7       30.12S

$$

MDZ012-015-019>023-311800-
MARYLAND EASTERN SHORE

CITY           SKY/WX    TMP DP  RH WIND       PRES   REMARKS
OCEAN CITY     PTSUNNY   80  68  66 S10G21    30.13S
SALISBURY      MOSUNNY   85  61  44 SW13      30.12S
BAY BRIDGE AP*   N/A     81  63  54 S7        30.10F
CAMBRIDGE*     SUNNY     81  57  44 S6        30.11F

$$

MDZ017>025-311800-
SOUTHERN MARYLAND

CITY           SKY/WX    TMP DP  RH WIND       PRES   REMARKS
PATUXENT RIVER MOSUNNY   83  60  45 SW8       30.11F
ST INIGOES     SUNNY     81  65  58 SE8       30.11F
LEONARDTOWN*   PTSUNNY   81  59  47 SW10      30.13S

$$

MDZ003>005-311800-
NORTH CENTRAL MARYLAND

CITY           SKY/WX    TMP DP  RH WIND       PRES   REMARKS
FREDERICK*     MOSUNNY   82  61  47 SW7       30.13S
HAGERSTOWN APT SUNNY     77  60  55 SW9       30.11S
WESTMINSTER*   SUNNY     77  61  57 W6        30.12S

$$

MDZ501>502-311800-
WESTERN MARYLAND

CITY           SKY/WX    TMP DP  RH WIND       PRES   REMARKS
OAKLAND*       MOSUNNY   68  55  64 SW8       30.19S
CUMBERLAND*    PTSUNNY   81  59  47 CALM      30.13F

$$

VAZ025>031-311800-
SHENANDOAH VALLEY

CITY           SKY/WX    TMP DP  RH WIND       PRES   REMARKS
WINCHESTER*    PTSUNNY   81  57  44 W7        30.11F
STAUNTON*      MOSUNNY   81  55  40 S6        30.15F

$$

WVZ021-048>050-054>055-311800-
EASTERN WEST VIRGINIA PANHANDLE

CITY           SKY/WX    TMP DP  RH WIND       PRES   REMARKS
MARTINSBURG    SUNNY     81  54  39 VRB5      30.11F
PETERSBURG*    MOSUNNY   81  52  36 S6        30.12S

$$

VAZ036>039-050-311800-
CENTRAL FOOTHILLS

CITY           SKY/WX    TMP DP  RH WIND       PRES   REMARKS
CHARLOTTESVILL SUNNY     82  57  42 S8        30.12S
ORANGE*        SUNNY     82  59  44 S7        30.12F

$$

VAZ055>057-311800-
NORTH AND CENTRAL PIEDMONT

CITY           SKY/WX    TMP DP  RH WIND       PRES   REMARKS
FREDERICKSBRG* MOSUNNY   86  62  44 S10G17    30.09F
STAFFORD*      SUNNY     84  58  40 SW9G17    30.14F

$$

NCZ024-NYZ072-PAZ021-071-VAZ022-071-311800-
OTHER REGIONAL OBSERVATIONS

CITY           SKY/WX    TMP DP  RH WIND       PRES   REMARKS
NEW YORK CITY  PTSUNNY   79  60  52 MISG      30.11F
PHILADELPHIA   MOSUNNY   82  62  50 SW14      30.10S
PITTSBURGH     PTSUNNY   72  60  66 W14       30.10S
ROANOKE        PTSUNNY   79  57  46 E9        30.17S
RICHMOND       CLOUDY    85  62  46 SW10      30.12F
RALEIGH        CLOUDY    80  66  62 VRB6      30.14F

$$

ANZ530>537-311800-
MARINE OBSERVATIONS

STATION/POSITION TIME  TEMP    WIND        PRES
                       AIR SEA DIR/SP/G
                 (UTC) (F)     (DEG/KT/KT) (MB)
THOMAS PT LIGHT  1700   77 78  170/ 12/ 12 1019.8F
BALT KEY BRIDGE  1700   79     200/ 10/ 12 1018.7F
COVE POINT       1700   79     190/  7/  8 1019.6S
LEWISETTA        1700   80 78  180/  6/  7 1019.6S
SOLOMONS ISLAND  1700      79                N/A
PINEY POINT      1700          170/  7/  8   N/A

$$



USA.gov is the U.S. government's official web portal to all federal, state and local government web resources and services.